• Join FlightAware (Why Join?)
  • Login
  • US Flag 
12:59PM EST


 

Airport Tracker/Info


-or-


 

Live Flight TrackerFlight Track Log ✈ RPA3159 ✈ 02-Jul-2013 ✈ KBTV - KPHL

Flight Track Log - Related Links

Times and Time Zones

All times are in EDT time to prevent confusion due to time zone crossing. See the RPA3159 flight status page for this flight to view local times or setup timezone preferences in your user account.

Time Position Orientation Groundspeed Altitude Reporting Facility
EDT Latitude Longitude Course Direction KTS MPH feet Rate Location/Type
11:57AM 44.3842 -73.1489 195° South 203 234 4,500  Level Boston Center
11:58AM 44.1641 -73.2635 195° South  Level FlightAware Approximate
11:58AM 44.3172 -73.1800 198° South 245 282 7,500  Level Boston Center
11:59AM 44.0627 -73.3013 194° South  Level FlightAware Approximate
11:59AM 44.2442 -73.2108 197° South 270 311 10,600  Level Boston Center
12:00PM 43.9606 -73.3354 194° South  Level FlightAware Approximate
12:00PM 44.1728 -73.2736 212° Southwest 290 334 13,000  Level Boston Center
12:01PM 43.8640 -73.3698 195° South  Level FlightAware Approximate
12:01PM 44.0994 -73.3361 211° Southwest 311 358 15,600  Level Boston Center
12:02PM 43.7677 -73.4060 195° South  Level FlightAware Approximate
12:02PM 44.0239 -73.4044 213° Southwest 316 364 17,800  Level Boston Center
12:03PM 43.9442 -73.4722 211° Southwest 327 376 19,900 2,040 Climbing Boston Center
12:04PM 43.8642 -73.5431 213° Southwest 332 382 21,900 1,020 Climbing Boston Center
12:05PM 43.7844 -73.6133 212° Southwest 338 389 22,000  Climbing Boston Center
12:06PM 43.7086 -73.6781 212° Southwest 352 405 22,000  Level Boston Center
12:07PM 43.6225 -73.7478 210° Southwest 352 405 22,000  Level Boston Center
12:08PM 43.5425 -73.8178 212° Southwest 352 405 22,000  Level Boston Center
12:09PM 43.4603 -73.8875 212° Southwest 352 405 22,000  Level Boston Center
12:10PM 43.3781 -73.9597 213° Southwest 347 399 22,000  Level Boston Center
12:11PM 43.2958 -74.0319 213° Southwest 352 405 22,000  Level Boston Center
12:12PM 43.2117 -74.1008 211° Southwest 352 405 22,000 -360 Level Boston Center
12:13PM 43.1292 -74.1697 211° Southwest 352 405 21,300 -840 Descending Boston Center
12:14PM 43.0489 -74.2414 213° Southwest 352 405 20,400 -660 Descending Boston Center
12:15PM 42.9667 -74.3072 210° Southwest 352 405 20,000 -240 Descending Boston Center
12:16PM 42.8842 -74.3756 211° Southwest 352 405 20,000 -60 Level Boston Center
12:17PM 42.7975 -74.4492 212° Southwest 352 405 19,900  Descending Boston Center
12:18PM 42.7169 -74.5172 212° Southwest 352 405 20,000  Climbing Boston Center
12:19PM 42.6344 -74.5850 211° Southwest 352 405 20,000  Level Boston Center
12:20PM 42.5539 -74.6528 212° Southwest 352 405 20,000  Level Boston Center
12:21PM 42.4756 -74.7203 212° Southwest 347 399 20,000  Level Boston Center
12:22PM 42.3950 -74.7847 211° Southwest 347 399 20,000  Level Boston Center
12:23PM 42.3186 -74.8464 211° Southwest 342 394 20,000  Level Boston Center
12:24PM 42.2400 -74.9108 211° Southwest 337 388 20,000 -420 Level Boston Center
12:26PM 42.1119 -75.0144 211° Southwest 337 388 19,000 -840 Descending New York Center
12:27PM 42.0381 -75.0992 220° Southwest 332 382 17,800 -1,320 Descending New York Center
12:28PM 41.9725 -75.1814 223° Southwest 332 382 16,400 -900 Descending New York Center
12:29PM 41.9311 -75.2900 243° Southwest 326 375 16,000 -360 Descending New York Center
12:30PM 41.9022 -75.3883 248° West 326 375 15,700 -840 Descending New York Center
12:31PM 41.8331 -75.4531 215° Southwest 314 361 14,400 -1,560 Descending New York Center
12:32PM 41.7422 -75.4911 197° South 308 354 12,700 -1,200 Descending New York Center
12:33PM 41.6594 -75.5269 198° South 308 354 12,000 -360 Descending New York Center
12:34PM 41.5836 -75.5494 193° South 314 361 12,000  Level New York Center
12:35PM 41.5006 -75.5433 177° South 308 354 12,000  Level New York Center
12:36PM 41.4031 -75.5339 176° South 313 360 12,000  Level New York Center
12:37PM 41.3203 -75.5222 174° South 308 354 12,000  Level New York Center
12:38PM 41.2336 -75.4997 169° South 308 354 12,000 -300 Level New York Center
12:39PM 41.1492 -75.4772 169° South 313 360 11,400 -540 Descending New York Center
12:40PM 41.0728 -75.4608 171° South 313 360 11,000 -660 Descending New York Center
12:41PM 40.9831 -75.4603 180° South 307 353 10,100 -540 Descending New York Center
12:42PM 40.9000 -75.4544 177° South 307 353 10,000 -60 Descending New York Center
12:43PM 40.8169 -75.4489 177° South 307 353 10,000  Level New York Center
12:44PM 40.7336 -75.4458 178° South 307 353 10,000  Level New York Center
12:45PM 40.6483 -75.4428 178° South 307 353 10,000  Level New York Center
12:46PM 40.5631 -75.4369 177° South 307 353 10,000  Level New York Center
12:47PM 40.4861 -75.4344 179° South 307 353 10,000 -120 Level New York Center
12:48PM 40.4039 -75.4044 164° South 297 342 9,800 -480 Descending New York Center
12:49PM 40.3325 -75.3642 157° South 286 329 9,100 -720 Descending New York Center
12:50PM 40.2589 -75.3294 160° South 286 329 8,400 -720 Descending New York Center
12:51PM 40.1931 -75.3603 200° South 267 307 7,700 -900 Descending New York Center
12:52PM 40.1294 -75.3914 201° Southwest 241 277 6,700 -900 Descending New York Center
12:53PM 40.0806 -75.4153 201° Southwest 221 254 6,000 -360 Descending New York Center
12:54PM 40.0139 -75.4081 175° South 214 246 6,000  Level New York Center
12:55PM 39.9606 -75.3911 166° South 221 254 6,000 -60 Level New York Center
12:56PM 39.9233 -75.4375 224° Southwest 178 205 5,900 -540 Descending New York Center
12:57PM 39.9081 -75.5067 254° West 174 200 5,000 -780 Descending New York Center
12:58PM 39.8667 -75.5500 219° Southwest 185 213 4,300 -900 Descending Philadelphia TRACON
12:59PM 39.8167 -75.5333 166° South 186 214 3,100 -1,200 Descending Philadelphia TRACON